Regional Weather Roundup
Issued by NWS

Home | Current Version | Previous Version | Graphics & Text | Print | Product List | Glossary On
Versions: 1 2 3 4 5 6 7 8 9 10 11 12 13 14 15 16 17 18 19 20 21 22 23 24 25 26 27 28 29 30 31 32 33 34 35 36 37 38 39 40 41 42 43 44 45 46 47 48 49 50
578
ASUS43 KBIS 121331
RWRND
NORTH DAKOTA REGIONAL WEATHER ROUNDUP
NATIONAL WEATHER SERVICE EASTERN NORTH DAKOTA/GRAND FORKS ND
700 AM CST FRI FEB 12 2016

  NOTE: "FAIR" INDICATES FEW OR NO CLOUDS BELOW 12,000 FEET WITH NO
  SIGNIFICANT WEATHER AND/OR OBSTRUCTIONS TO VISIBILITY.

NDZ001>003-009>011-017-121400-
...NORTHWEST NORTH DAKOTA...

CITY           SKY/WX    TMP DP  RH WIND       PRES   REMARKS
WILLISTON      PTCLDY     4  -2  76 N7        30.51R WCI  -8
MINOT          PTCLDY    -1 -10  65 NW10      30.53R WCI -17
MINOT AFB      CLOUDY    -8 -13  79 NW3       30.54R
$$

NDZ018>021-031>035-040>046-121400-
...SOUTHWEST NORTH DAKOTA...

CITY           SKY/WX    TMP DP  RH WIND       PRES   REMARKS
BISMARCK       PTCLDY     7  -1  70 N9        30.50R WCI  -7
DICKINSON      CLOUDY    11   7  84 NE13      30.40R WCI  -4
GARRISON         N/A      0  -7  72 N7        30.50R WCI -13
HETTINGER      CLOUDY    18  14  84 N10       30.40R WCI   6
$$

NDZ004>008-012>016-024-026-027-054-121400-
...NORTHEAST NORTH DAKOTA...

CITY           SKY/WX    TMP DP  RH WIND       PRES   REMARKS
GRAND FORKS    PTCLDY    -2 -10  69 N17       30.54R WCI -23
GRAND FORKS AF CLOUDY    -2  -9  71 N17       30.55R WCI -24
DEVILS LAKE    PTCLDY   -12 -16  82 NW10      30.52R WCI -31
$$

NDZ022-023-025-028>030-036>039-047>053-121400-
...SOUTHEAST NORTH DAKOTA...

CITY           SKY/WX    TMP DP  RH WIND       PRES   REMARKS
JAMESTOWN      CLOUDY     0  -6  76 N17       30.48R WCI -21
FARGO          CLEAR      1  -8  66 N16       30.51R WCI -19
WAHPETON       MOSUNNY    1  -6  71 N14       30.49R WCI -17
$$




USA.gov is the U.S. government's official web portal to all federal, state and local government web resources and services.